Regional Weather Roundup
Issued by NWS

Home | Current Version | Previous Version | Graphics & Text | Print | Product List | Glossary On
Versions: 1 2 3 4 5 6 7 8 9 10 11 12 13 14 15 16 17 18 19 20 21 22 23 24 25 26 27 28 29 30 31 32 33 34 35 36 37 38 39 40 41 42 43 44 45 46 47 48 49 50
080
ASUS43 KMKX 301200
RWRWI

WISCONSIN REGIONAL WEATHER ROUNDUP
NATIONAL WEATHER SERVICE MILWAUKEE/SULLIVAN WI
700 AM CDT SAT APR 30 2016

NOTE: "FAIR" INDICATES FEW OR NO CLOUDS BELOW 12,000 FEET WITH NO
SIGNIFICANT WEATHER AND/OR OBSTRUCTIONS TO VISIBILITY.

WIZ001-002-006>008-014>016-023>028-301300-
NORTHWEST WISCONSIN

CITY           SKY/WX    TMP DP  RH WIND       PRES   REMARKS
SUPERIOR ARPT  CLEAR     38  34  83 NE15      30.25R WCI  30
ASHLAND        PTSUNNY   37  35  92 NE8       30.25R WCI  31
6HR MIN TEMP:  28; 6HR MAX TEMP:  37;

HAYWARD        SUNNY     37  30  75 NE7       30.19S WCI  32
6HR MIN TEMP:  33; 6HR MAX TEMP:  37;

SIREN          CLOUDY    36  31  79 NE6       30.16F WCI  32
CUMBERLAND     CLOUDY    36  30  80 NE7       30.14S WCI  30
RICE LAKE      CLOUDY    37  32  81 NE7       30.16S WCI  32
CHETEK         CLOUDY    40  32  74 NE6       30.15R
LADYSMITH      MOSUNNY   38  32  78 NE7       30.17S WCI  33
6HR MIN TEMP:  37; 6HR MAX TEMP:  42;

EAU CLAIRE     NOT AVBL
MENOMONIE      MOCLDY    41  34  75 NE6       30.13R
NEW RICHMOND   PTCLDY    39  31  72 E9        30.12R WCI  33
OSCEOLA        PTCLDY    40  32  73 NE6       30.16R
$$

WIZ003>005-009-010-017-018-301300-
NORTH CENTRAL WISCONSIN

CITY           SKY/WX    TMP DP  RH WIND       PRES   REMARKS
MANITOWISH WTR SUNNY     35  31  85 NE6       30.19S WCI  30
ARBOR VITAE    CLOUDY    37  31  81 NE5       30.18S WCI  33
WOODRUFF       CLOUDY    37  31  81 NE5       30.18S WCI  33
RHINELANDER    CLOUDY    37  29  72 E7        30.18R WCI  32
6HR MIN TEMP:  35; 6HR MAX TEMP:  40;

EAGLE RIVER    CLOUDY    33  30  88 CALM      30.18S
LAND O LAKES   SUNNY     34  30  85 N3        30.21R FOG
PHILLIPS       CLOUDY    36  31  81 NE3       30.17R
6HR MIN TEMP:  32; 6HR MAX TEMP:  37;

TOMAHAWK       CLOUDY    35  29  79 NE5       30.17S WCI  31
MEDFORD        CLOUDY    35  30  80 NE8       30.14R WCI  29
MERRILL        CLOUDY    34  31  87 NE3       30.17S
$$

WIZ029-030-035-036-043>047-301300-
CENTRAL WISCONSIN

CITY           SKY/WX    TMP DP  RH WIND       PRES   REMARKS
WAUSAU         PTSUNNY   42  30  62 E5        30.14R
6HR MIN TEMP:  38; 6HR MAX TEMP:  42;

MOSINEE        SUNNY     37  32  81 NE6       30.15R WCI  33
MARSHFIELD     CLOUDY    40  30  67 NE8       30.11F WCI  34
6HR MIN TEMP:  37; 6HR MAX TEMP:  43;

STEVENS POINT  CLOUDY    36  30  78 NE6       30.14S WCI  31
WAUPACA        PTSUNNY   40  33  76 NE6       30.14F
6HR MIN TEMP:  36; 6HR MAX TEMP:  40;

WAUTOMA        CLOUDY    40  32  73 NE9       30.12F WCI  34
6HR MIN TEMP:  33; 6HR MAX TEMP:  40;

WISC RAPIDS    CLOUDY    40  29  64 NE8       30.13F WCI  34
6HR MIN TEMP:  34; 6HR MAX TEMP:  43;

CAMP DOUGLAS   NOT AVBL
$$

WIZ011>013-019>022-031-037>040-048>050-301300-
NORTHEAST WISCONSIN

CITY           SKY/WX    TMP DP  RH WIND       PRES   REMARKS
ANTIGO         CLOUDY    35  31  85 NE8       30.16R WCI  29
SHAWANO        CLOUDY    41  33  73 NE7       30.16S
OCONTO         CLOUDY    38  35  87 NE3       30.17R
STURGEON BAY   CLOUDY    39  34  81 E6        30.18S WCI  35
6HR MIN TEMP:  39; 6HR MAX TEMP:  43;

GREEN BAY      CLOUDY    43  38  82 NE10      30.15S
6HR MIN TEMP:  36; 6HR MAX TEMP:  43;

MANITOWOC      NOT AVBL
APPLETON       PTSUNNY   39  32  75 NE8       30.11F WCI  34
CLINTONVILLE   PTSUNNY   37  32  81 NE6       30.15S WCI  33
OSHKOSH        CLOUDY    44  33  65 NE9       30.12S
6HR MIN TEMP:  36; 6HR MAX TEMP:  44;

$$

WIZ032>034-041-042-053>061-301300-
SOUTHWEST WISCONSIN

CITY           SKY/WX    TMP DP  RH WIND       PRES   REMARKS
LA CROSSE      CLOUDY    44  36  73 E6        30.07F
6HR MIN TEMP:  39; 6HR MAX TEMP:  45;

SPARTA         CLOUDY    36  35  98 CALM      30.10S
VIROQUA        CLOUDY    42  38  86 E13       30.05S
BOSCOBEL       CLOUDY    46  38  73 NE8       30.05S
6HR MIN TEMP:  38; 6HR MAX TEMP:  46;

PRAIRIE DU CHI CLOUDY    45  37  75 E6        30.03S
PLATTEVILLE    CLOUDY    43  40  89 E13       30.03R
$$

WIZ056-057-062-063-064-067-068-301300-
SOUTH CENTRAL WISCONSIN

CITY           SKY/WX    TMP DP  RH WIND       PRES   REMARKS
REEDSBURG      CLOUDY    41  34  75 NE6       30.07S
BARABOO/DELLS  CLOUDY    39  32  75 NE9       30.08R WCI  33
LONE ROCK      CLOUDY    45  37  76 E9        30.07R
MINERAL POINT  CLOUDY    45  39  81 E12       30.04R
MADISON        CLOUDY    42  33  70 E10       30.07F
6HR MIN TEMP:  42; 6HR MAX TEMP:  43;

MIDDLETON      CLOUDY    44  35  72 E7        30.07S
WATERTOWN      PTSUNNY   41  32  69 NE9       30.09S
MONROE         CLOUDY    43  37  81 E10       30.04S
JANESVILLE     CLOUDY    45  39  81 E12       30.07R
$$

WIZ051-052-058>065-066-070>072-301300-
SOUTHEAST WISCONSIN

CITY           SKY/WX    TMP DP  RH WIND       PRES   REMARKS
MILWAUKEE      CLOUDY    43  39  86 E12       30.10S
6HR MIN TEMP:  40; 6HR MAX TEMP:  43;

WAUKESHA       SUNNY     37  32  81 NE5       30.10F WCI  34
MILWAUKEE/TIMM CLOUDY    41  34  75 NE5       30.11S
RACINE         CLOUDY    44  38  79 E12       30.11S
6HR MIN TEMP:  44; 6HR MAX TEMP:  45;

BURLINGTON     PTSUNNY   42  37  83 E6        30.09R
6HR MIN TEMP:  40; 6HR MAX TEMP:  42;

KENOSHA        CLOUDY    44  39  82 E10       30.09R
6HR MIN TEMP:  43; 6HR MAX TEMP:  44;

FOND DU LAC    CLOUDY    41  32  70 E5        30.12R
6HR MIN TEMP:  33; 6HR MAX TEMP:  41;

SHEBOYGAN      MOSUNNY   39  35  86 NE6       30.13S WCI  35
6HR MIN TEMP:  33; 6HR MAX TEMP:  39;

WEST BEND      PTSUNNY   36  30  80 NE3       30.11S
JUNEAU         PTSUNNY   39  31  71 NE7       30.11S WCI  34
$$

LSZ147-162-301300-
LAKE SUPERIOR

STATION/POSITION TIME  TEMP    WIND        PRES    WAVE
                       AIR SEA DIR/SP/G            HT/PER
                 (UTC) (F)     (DEG/KT/KT) (MB)    (FT/S)
W MID LAKE BUOY  1050   38 36   40/ 12/ 14 1025.5R   1/ 3
DEVILS ISLAND    1100   39      60/ 17/ 19 1025.4R
SAXON HARBOR     1100   31     190/  3/  3 1023.4R
$$

LMZ867-665-643>646-301300-
LAKE MICHIGAN

STATION/POSITION TIME  TEMP    WIND        PRES    WAVE
                       AIR SEA DIR/SP/G            HT/PER
                 (UTC) (F)     (DEG/KT/KT) (MB)    (FT/S)
CHAMBERS ISLAND  1100   41      10/  9/ 11 1022.0R
N MID LAKE BUOY  1050   40 38   30/ 10/ 12 1021.7R   1/ 3
NORTHPORT PIER   1102   42     340/  2/  6 1021.7R
ALGOMA LAKESHORE 1115           60/ 13/ 16   N/A
KEWAUNEE LAKESHO 1100   41      40/ 10/ 12 1020.2S
SHEBOYGAN LAKESH 1100   41      20/  7/  8 1021.2S
PORT WASHINGTON  1100   43      30/  7/  9 1020.7S
S MID LAKE BUOY  1050   41 40   70/ 12/ 12 1019.4S   1
KENOSHA   LAKESH 1100   43      60/ 15/ 18 1018.3F
$$

TC  - TEMPERATURE IN CELSIUS
VSB - VISIBILITY IN STATUTE MILES
WCI - WIND CHILL INDEX
HX  - HEAT INDEX





USA.gov is the U.S. government's official web portal to all federal, state and local government web resources and services.